H1 CPF 2 NER 2023 4 17 9 107 01 glonass131 H2 1301901 9131 39155 2023 4 17 0 0 0 2023 4 20 23 45 0 900 1 1 0 0 0 1 H9 10 0 60051 0.00000 0 -5527109.624 20834987.787 -13538559.198 10 0 60051 900.00000 0 -5542421.350 18996252.966 -16008162.695 10 0 60051 1800.00000 0 -5732959.323 16880906.235 -18164798.077 10 0 60051 2700.00000 0 -6128403.521 14546223.971 -19966285.913 10 0 60051 3600.00000 0 -6747358.421 12056046.178 -21377435.729 10 0 60051 4500.00000 0 -7596374.748 9478262.308 -22370743.794 10 0 60051 5400.00000 0 -8669498.909 6882140.246 -22926933.301 10 0 60051 6300.00000 0 -9948369.708 4335612.151 -23035326.282 10 0 60051 7200.00000 0 -11402857.999 1902632.319 -22694040.423 10 0 60051 8100.00000 0 -12992221.386 -359281.477 -21910007.979 10 0 60051 9000.00000 0 -14666723.916 -2401220.307 -20698817.822 10 0 60051 9900.00000 0 -16369650.843 -4184680.031 -19084385.489 10 0 60051 10800.00000 0 -18039632.024 -5682907.603 -17098459.582 10 0 60051 11700.00000 0 -19613174.705 -6881744.086 -14779976.155 10 0 60051 12600.00000 0 -21027298.156 -7779932.457 -12174275.606 10 0 60051 13500.00000 0 -22222158.920 -8388881.161 -9332199.163 10 0 60051 14400.00000 0 -23143556.555 -8731897.311 -6309084.025 10 0 60051 15300.00000 0 -23745215.433 -8842925.592 -3163677.986 10 0 60051 16200.00000 0 -23990748.242 -8764849.251 43004.618 10 0 60051 17100.00000 0 -23855220.707 -8547427.329 3248863.081 10 0 60051 18000.00000 0 -23326254.067 -8244956.764 6391903.890 10 0 60051 18900.00000 0 -22404621.333 -7913758.657 9411425.252 10 0 60051 19800.00000 0 -21104314.327 -7609594.427 12249170.884 10 0 60051 20700.00000 0 -19452080.208 -7385119.742 14850432.337 10 0 60051 21600.00000 0 -17486447.700 -7287481.829 17165080.587 10 0 60051 22500.00000 0 -15256283.603 -7356159.333 19148509.183 10 0 60051 23400.00000 0 -12818938.881 -7621133.659 20762472.996 10 0 60051 24300.00000 0 -10238059.761 -8101466.972 21975808.531 10 0 60051 25200.00000 0 -7581152.347 -8804345.584 22765023.754 10 0 60051 26100.00000 0 -4916998.985 -9724628.644 23114747.359 10 0 60051 27000.00000 0 -2313030.429 -10844921.845 23018029.548 10 0 60051 27900.00000 0 167240.292 -12136174.775 22476488.473 10 0 60051 28800.00000 0 2466618.508 -13558779.493 21500298.753 10 0 60051 29700.00000 0 4536365.540 -15064127.477 20108020.760 10 0 60051 30600.00000 0 6337985.807 -16596563.244 18326271.884 10 0 60051 31500.00000 0 7844589.480 -18095656.174 16189243.517 10 0 60051 32400.00000 0 9041773.503 -19498698.263 13738070.363 10 0 60051 33300.00000 0 9927983.066 -20743325.179 11020061.435 10 0 60051 34200.00000 0 10514336.795 -21770151.745 8087805.214 10 0 60051 35100.00000 0 10823921.204 -22525311.031 4998164.270 10 0 60051 36000.00000 0 10890582.364 -22962789.122 1811177.542 10 0 60051 36900.00000 0 10757264.428 -23046455.047 -1411108.882 10 0 60051 37800.00000 0 10473964.502 -22751697.423 -4605859.436 10 0 60051 38700.00000 0 10095390.501 -22066595.429 -7710690.422 10 0 60051 39600.00000 0 9678422.191 -20992571.317 -10664908.994 10 0 60051 40500.00000 0 9279484.795 -19544493.825 -13410723.383 10 0 60051 41400.00000 0 8951948.991 -17750225.630 -15894398.221 10 0 60051 42300.00000 0 8743670.352 -15649632.234 -18067329.811 10 0 60051 43200.00000 0 8694775.462 -13293093.257 -19887017.988 10 0 60051 44100.00000 0 8835791.227 -10739578.887 -21317913.638 10 0 60051 45000.00000 0 9186198.808 -8054373.179 -22332123.835 10 0 60051 45900.00000 0 9753474.895 -5306541.170 -22909960.032 10 0 60051 46800.00000 0 10532661.582 -2566247.555 -23040318.413 10 0 60051 47700.00000 0 11506482.911 97959.236 -22720885.405 10 0 60051 48600.00000 0 12646002.282 2621782.824 -21958165.306 10 0 60051 49500.00000 0 13911791.585 4947623.850 -20767330.923 10 0 60051 50400.00000 0 15255560.855 7026732.267 -19171901.844 10 0 60051 51300.00000 0 16622177.823 8820978.257 -17203258.560 10 0 60051 52200.00000 0 17951990.368 10304169.934 -14900003.901 10 0 60051 53100.00000 0 19183352.514 11462865.629 -12307186.210 10 0 60051 54000.00000 0 20255246.545 12296650.356 -9475401.197 10 0 60051 54900.00000 0 21109890.491 12817868.786 -6459791.496 10 0 60051 55800.00000 0 21695221.512 13050829.851 -3318964.675 10 0 60051 56700.00000 0 21967151.685 13030520.078 -113851.515 10 0 60051 57600.00000 0 21891502.857 12800882.846 3093472.931 10 0 60051 58500.00000 0 21445541.148 12412738.228 6240982.737 10 0 60051 59400.00000 0 20619048.738 11921432.360 9267886.546 10 0 60051 60300.00000 0 19414889.922 11384315.640 12115783.299 10 0 60051 61200.00000 0 17849049.309 10858155.334 14729767.495 10 0 60051 62100.00000 0 15950141.531 10396590.149 17059464.618 10 0 60051 63000.00000 0 13758413.166 10047731.909 19059978.959 10 0 60051 63900.00000 0 11324277.831 9852013.084 20692737.778 10 0 60051 64800.00000 0 8706443.931 9840368.488 21926217.681 10 0 60051 65700.00000 0 5969710.572 10032825.909 22736541.047 10 0 60051 66600.00000 0 3182520.307 10437563.815 23107932.357 10 0 60051 67500.00000 0 414366.982 11050475.573 23033026.353 10 0 60051 68400.00000 0 -2266837.138 11855259.358 22513022.126 10 0 60051 69300.00000 0 -4797328.839 12824031.752 21557679.373 10 0 60051 70200.00000 0 -7119892.040 13918441.921 20185155.471 10 0 60051 71100.00000 0 -9185988.791 15091242.726 18421684.382 10 0 60051 72000.00000 0 -10957535.457 16288256.115 16301101.080 10 0 60051 72900.00000 0 -12408250.193 17450653.349 13864217.873 10 0 60051 73800.00000 0 -13524514.697 18517456.774 11158061.932 10 0 60051 74700.00000 0 -14305712.761 19428159.521 8234986.266 10 0 60051 75600.00000 0 -14764029.616 20125353.454 5151669.350 10 0 60051 76500.00000 0 -14923718.625 20557254.023 1968021.454 10 0 60051 77400.00000 0 -14819864.529 20680013.857 -1253981.614 10 0 60051 78300.00000 0 -14496694.294 20459724.855 -4451514.380 10 0 60051 79200.00000 0 -14005506.507 19874021.005 -7562142.491 10 0 60051 80100.00000 0 -13402307.377 18913210.721 -10525062.415 10 0 60051 81000.00000 0 -12745254.701 17580887.450 -13282313.661 10 0 60051 81900.00000 0 -12092020.098 15893989.756 -15779937.355 10 0 60051 82800.00000 0 -11497183.748 13882306.014 -17969055.965 10 0 60051 83700.00000 0 -11009774.811 11587443.121 -19806850.718 10 0 60051 84600.00000 0 -10671064.294 9061302.046 -21257415.637 10 0 60051 85500.00000 0 -10512706.120 6364124.584 -22292470.043 10 0 60052 0.00000 0 -10555306.676 3562194.517 -22891914.683 10 0 60052 900.00000 0 -10807484.281 725289.385 -23044220.687 10 0 60052 1800.00000 0 -11265458.219 -2076005.144 -22746643.426 10 0 60052 2700.00000 0 -11913183.999 -4773009.637 -22005259.117 10 0 60052 3600.00000 0 -12723027.629 -7301575.991 -20834823.945 10 0 60052 4500.00000 0 -13656948.414 -9604514.837 -19258460.584 10 0 60052 5400.00000 0 -14668138.149 -11633724.322 -17307180.068 10 0 60052 6300.00000 0 -15703045.253 -13351932.895 -15019250.344 10 0 60052 7200.00000 0 -16703696.455 -14733985.615 -12439425.774 10 0 60052 8100.00000 0 -17610216.500 -15767623.367 -9618054.447 10 0 60052 9000.00000 0 -18363438.677 -16453725.951 -6610082.206 10 0 60052 9900.00000 0 -18907495.813 -16806012.752 -3473974.088 10 0 60052 10800.00000 0 -19192282.978 -16850217.293 -270574.950 10 0 60052 11700.00000 0 -19175689.245 -16622773.746 2938068.220 10 0 60052 12600.00000 0 -18825506.110 -16169073.329 6089899.554 10 0 60052 13500.00000 0 -18120934.183 -15541365.739 9124040.644 10 0 60052 14400.00000 0 -17053626.724 -14796394.805 11981948.199 10 0 60052 15300.00000 0 -15628227.896 -13992867.652 14608522.185 10 0 60052 16200.00000 0 -13862384.358 -13188862.810 16953145.033 10 0 60052 17100.00000 0 -11786230.147 -12439284.441 18970634.067 10 0 60052 18000.00000 0 -9441366.006 -11793467.473 20622091.012 10 0 60052 18900.00000 0 -6879374.401 -11293031.834 21875634.365 10 0 60052 19800.00000 0 -4159929.916 -10970073.687 22707002.402 10 0 60052 20700.00000 0 -1348580.744 -10845767.887 23100016.518 10 0 60052 21600.00000 0 1485709.926 -10929439.346 23046896.800 10 0 60052 22500.00000 0 4273164.138 -11218142.219 22548423.730 10 0 60052 23400.00000 0 6945826.513 -11696765.535 21613942.238 10 0 60052 24300.00000 0 9440132.276 -12338662.642 20261206.547 10 0 60052 25200.00000 0 11699301.658 -13106780.580 18516066.745 10 0 60052 26100.00000 0 13675462.549 -13955244.897 16412000.613 10 0 60052 27000.00000 0 15331413.550 -14831336.248 13989496.978 10 0 60052 27900.00000 0 16641953.471 -15677778.305 11295299.709 10 0 60052 28800.00000 0 17594720.480 -16435242.637 8381524.517 10 0 60052 29700.00000 0 18190504.006 -17044966.006 5304663.590 10 0 60052 30600.00000 0 18443014.276 -17451369.688 2124496.003 10 0 60052 31500.00000 0 18378117.204 -17604569.004 -1097075.499 10 0 60052 32400.00000 0 18032565.296 -17462664.908 -4297238.502 10 0 60052 33300.00000 0 17452277.169 -16993717.779 -7413511.053 10 0 60052 34200.00000 0 16690238.231 -16177316.500 -10384981.991 10 0 60052 35100.00000 0 15804111.994 -15005672.926 -13153525.094 10 0 60052 36000.00000 0 14853664.637 -13484192.085 -15664960.855 10 0 60052 36900.00000 0 13898113.909 -11631491.193 -17870140.603 10 0 60052 37800.00000 0 12993517.139 -9478864.583 -19725929.420 10 0 60052 38700.00000 0 12190311.372 -7069215.827 -21196066.668 10 0 60052 39600.00000 0 11531112.060 -4455501.658 -22251885.764 10 0 60052 40500.00000 0 11048865.132 -1698753.481 -22872878.296 10 0 60052 41400.00000 0 10765431.593 1134239.529 -23047091.199 10 0 60052 42300.00000 0 10690664.634 3973487.307 -22771349.590 10 0 60052 43200.00000 0 10822017.554 6748487.388 -22051301.837 10 0 60052 44100.00000 0 11144697.546 9390931.508 -20901287.345 10 0 60052 45000.00000 0 11632356.775 11837316.567 -19344031.337 10 0 60052 45900.00000 0 12248289.042 14031351.008 -17410174.495 10 0 60052 46800.00000 0 12947078.899 15926057.050 -15137648.631 10 0 60052 47700.00000 0 13676631.052 17485482.655 -12570912.539 10 0 60052 48600.00000 0 14380492.221 18685954.258 -9760064.754 10 0 60052 49500.00000 0 15000365.843 19516821.052 -6759852.084 10 0 60052 50400.00000 0 15478712.566 19980663.212 -3628594.507 10 0 60052 51300.00000 0 15761326.640 20092959.074 -427048.205 10 0 60052 52200.00000 0 15799780.091 19881228.728 2782770.807 10 0 60052 53100.00000 0 15553632.837 19383692.990 5938779.684 10 0 60052 54000.00000 0 14992317.246 18647506.355 8980015.923 10 0 60052 54900.00000 0 14096619.635 17726639.537 11847796.875 10 0 60052 55800.00000 0 12859698.183 16679500.896 14486830.722 10 0 60052 56700.00000 0 11287595.842 15566396.060 16846259.432 10 0 60052 57600.00000 0 9399227.543 14446930.904 18880615.769 10 0 60052 58500.00000 0 7225842.154 13377464.807 20550678.121 10 0 60052 59400.00000 0 4809980.701 12408718.491 21824208.853 10 0 60052 60300.00000 0 2203972.438 11583634.259 22676563.829 10 0 60052 61200.00000 0 -531971.298 10935576.065 23091162.752 10 0 60052 62100.00000 0 -3331989.456 10486943.194 23059812.048 10 0 60052 63000.00000 0 -6127040.770 10248254.774 22582874.167 10 0 60052 63900.00000 0 -8847511.477 10217743.558 21669279.347 10 0 60052 64800.00000 0 -11425856.328 10381477.005 20336378.206 10 0 60052 65700.00000 0 -13799165.992 10714002.377 18609635.976 10 0 60052 66600.00000 0 -15911556.002 11179491.179 16522171.758 10 0 60052 67500.00000 0 -17716278.789 11733337.503 14114148.941 10 0 60052 68400.00000 0 -19177470.724 12324145.663 11432025.772 10 0 60052 69300.00000 0 -20271460.217 12896025.528 8527678.057 10 0 60052 70200.00000 0 -20987580.477 13391100.220 5457408.902 10 0 60052 71100.00000 0 -21328450.728 13752120.749 2280863.281 10 0 60052 72000.00000 0 -21309711.811 13925076.472 -940132.093 10 0 60052 72900.00000 0 -20959225.295 13861689.322 -4142780.853 10 0 60052 73800.00000 0 -20315768.338 13521683.672 -7264556.418 10 0 60052 74700.00000 0 -19427278.613 12874732.528 -10244442.927 10 0 60052 75600.00000 0 -18348723.517 11901994.129 -13024151.260 10 0 60052 76500.00000 0 -17139684.681 10597170.366 -15549283.947 10 0 60052 77400.00000 0 -15861761.537 8967039.085 -17770423.611 10 0 60052 78300.00000 0 -14575905.927 7031435.178 -19644121.320 10 0 60052 79200.00000 0 -13339802.780 4822679.417 -21133763.526 10 0 60052 80100.00000 0 -12205409.841 2384478.176 -22210299.098 10 0 60052 81000.00000 0 -11216762.271 -229659.800 -22852811.339 10 0 60052 81900.00000 0 -10408135.992 -2958422.533 -23048923.553 10 0 60052 82800.00000 0 -9802647.762 -5735024.866 -22795030.526 10 0 60052 83700.00000 0 -9411350.485 -8489770.551 -22096352.329 10 0 60052 84600.00000 0 -9232860.578 -11152737.894 -20966810.703 10 0 60052 85500.00000 0 -9253530.989 -13656475.689 -19428732.137 10 0 60053 0.00000 0 -9448159.859 -15938596.175 -17512385.518 10 0 60053 900.00000 0 -9781202.090 -17944158.207 -15255364.266 10 0 60053 1800.00000 0 -10208429.381 -19627739.135 -12701829.647 10 0 60053 2700.00000 0 -10678966.294 -20955114.776 -9901628.412 10 0 60053 3600.00000 0 -11137613.847 -21904476.773 -6909306.050 10 0 60053 4500.00000 0 -11527361.032 -22467140.770 -3783035.200 10 0 60053 5400.00000 0 -11791977.359 -22647719.012 -583481.119 10 0 60053 6300.00000 0 -11878576.947 -22463753.576 2627373.362 10 0 60053 7200.00000 0 -11740046.677 -21944828.734 5787420.617 10 0 60053 8100.00000 0 -11337237.281 -21131202.299 8835616.230 10 0 60053 9000.00000 0 -10640826.700 -20072015.102 11713140.364 10 0 60053 9900.00000 0 -9632779.014 -18823154.577 14364511.553 10 0 60053 10800.00000 0 -8307339.181 -17444861.880 16738633.374 10 0 60053 11700.00000 0 -6671522.857 -15999181.759 18789755.983 10 0 60053 12600.00000 0 -4745081.165 -14547360.141 20478336.219 10 0 60053 13500.00000 0 -2559941.321 -13147296.009 21771781.880 10 0 60053 14400.00000 0 -159145.022 -11851151.503 22645067.741 10 0 60053 15300.00000 0 2404673.465 -10703217.690 23081212.839 10 0 60053 16200.00000 0 5071209.256 -9738123.016 23071610.700 10 0 60053 17100.00000 0 7774732.486 -8979457.828 22616206.209 10 0 60053 18000.00000 0 10446568.015 -8438871.792 21723515.106 10 0 60053 18900.00000 0 13017709.796 -8115682.149 20410484.335 10 0 60053 19800.00000 0 15421464.404 -7997010.295 18702193.929 10 0 60053 20700.00000 0 17596016.096 -8058442.703 16631403.677 10 0 60053 21600.00000 0 19486808.108 -8265190.708 14237950.594 10 0 60053 22500.00000 0 21048641.249 -8573702.745 11568006.022 10 0 60053 23400.00000 0 22247401.541 -8933663.378 8673204.208 10 0 60053 24300.00000 0 23061343.117 -9290296.459 5609657.142 10 0 60053 25200.00000 0 23481870.490 -9586876.056 2436873.296 10 0 60053 26100.00000 0 23513784.909 -9767338.879 -783399.367 10 0 60053 27000.00000 0 23174982.037 -9778886.507 -3988383.470 10 0 60053 27900.00000 0 22495611.641 -9574465.145 -7115510.882 10 0 60053 28800.00000 0 21516733.324 -9115014.967 -10103664.139 10 0 60053 29700.00000 0 20288524.452 -8371390.370 -12894394.251 10 0 60053 30600.00000 0 18868116.184 -7325866.257 -15433088.663 10 0 60053 31500.00000 0 17317150.156 -5973163.170 -17670063.979 10 0 60053 32400.00000 0 15699160.706 -4320944.975 -19561559.705 10 0 60053 33300.00000 0 14076895.301 -2389765.755 -21070611.567 10 0 60053 34200.00000 0 12509688.486 -212466.732 -22167785.759 10 0 60053 35100.00000 0 11051002.076 2166952.029 -22831758.838 10 0 60053 36000.00000 0 9746236.738 4694937.532 -23049731.625 10 0 60053 36900.00000 0 8630907.872 7310399.094 -22817669.321 10 0 60053 37800.00000 0 7729262.434 9947047.254 -22140364.010 10 0 60053 38700.00000 0 7053393.788 12535957.019 -21031319.645 10 0 60053 39600.00000 0 6602889.903 15008246.940 -19512463.424 10 0 60053 40500.00000 0 6365027.010 17297761.122 -17613691.088 10 0 60053 41400.00000 0 6315497.359 19343641.817 -15372256.979 10 0 60053 42300.00000 0 6419637.078 21092685.445 -12832022.762 10 0 60053 43200.00000 0 6634099.042 22501384.824 -10042581.284 10 0 60053 44100.00000 0 6908897.274 23537574.161 -7058274.270 10 0 60053 45000.00000 0 7189734.296 24181610.579 -3937124.309 10 0 60053 45900.00000 0 7420511.589 24427045.768 -739702.815 10 0 60053 46800.00000 0 7545916.502 24280762.850 2472043.607 10 0 60053 47700.00000 0 7513976.514 23762575.844 5635985.618 10 0 60053 48600.00000 0 7278473.933 22904311.222 8690999.911 10 0 60053 49500.00000 0 6801120.595 21748412.092 11578132.355 10 0 60053 50400.00000 0 6053402.635 20346124.725 14241714.568 10 0 60053 51300.00000 0 5018019.365 18755343.612 16630414.258 10 0 60053 52200.00000 0 3689857.149 17038204.545 18698201.277 10 0 60053 53100.00000 0 2076458.187 15258524.837 20405212.981 10 0 60053 54000.00000 0 197964.546 13479195.416 21718504.413 10 0 60053 54900.00000 0 -1913461.176 11759631.060 22612670.790 10 0 60053 55800.00000 0 -4214716.239 10153382.426 23070331.704 10 0 60053 56700.00000 0 -6653296.878 8706006.969 23082468.620 10 0 60053 57600.00000 0 -9169235.415 7453285.453 22648609.284 10 0 60053 58500.00000 0 -11697358.466 6419857.152 21776854.895 10 0 60053 59400.00000 0 -14169776.030 5618330.165 20483748.169 10 0 60053 60300.00000 0 -16518501.364 5048904.375 18793982.850 10 0 60053 61200.00000 0 -18678095.364 4699523.970 16739957.824 10 0 60053 62100.00000 0 -20588227.167 4546554.863 14361181.660 10 0 60053 63000.00000 0 -22196045.085 4555960.630 11703536.322 10 0 60053 63900.00000 0 -23458258.534 4684929.619 8818411.715 10 0 60053 64800.00000 0 -24342842.659 4883886.447 5761725.719 10 0 60053 65700.00000 0 -24830292.194 5098804.157 2592847.184 10 0 60053 66600.00000 0 -24914369.341 5273719.653 -626557.835 10 0 60053 67500.00000 0 -24602311.552 5353345.318 -3833734.109 10 0 60053 68400.00000 0 -23914487.922 5285664.608 -6966075.068 10 0 60053 69300.00000 0 -22883516.652 5024399.162 -9962364.677 10 0 60053 70200.00000 0 -21552879.512 4531239.752 -12763996.983 10 0 60053 71100.00000 0 -19975091.357 3777743.079 -15316147.081 10 0 60053 72000.00000 0 -18209502.382 2746810.612 -17568868.022 10 0 60053 72900.00000 0 -16319827.070 1433683.705 -19478089.866 10 0 60053 73800.00000 0 -14371505.828 -153589.730 -21006499.296 10 0 60053 74700.00000 0 -12429012.535 -1994238.540 -22124281.010 10 0 60053 75600.00000 0 -10553223.438 -4055399.211 -22809705.440 10 0 60053 76500.00000 0 -8798959.705 -6293267.940 -23049550.995 10 0 60053 77400.00000 0 -7212808.073 -8654724.985 -22839352.801 10 0 60053 78300.00000 0 -5831311.338 -11079362.007 -22183473.951 10 0 60053 79200.00000 0 -4679603.981 -13501826.070 -21094999.142 10 0 60053 80100.00000 0 -3770548.609 -15854380.614 -19595454.412 10 0 60053 81000.00000 0 -3104406.942 -18069575.005 -17714360.351 10 0 60053 81900.00000 0 -2669056.027 -20082910.162 -15488629.450 10 0 60053 82800.00000 0 -2440737.030 -21835388.570 -12961821.354 10 0 60053 83700.00000 0 -2385301.399 -23275842.543 -10183272.378 10 0 60053 84600.00000 0 -2459898.469 -24362944.646 -7207117.887 10 0 60053 85500.00000 0 -2615030.379 -25066818.103 -4091227.911 10 0 60054 0.00000 0 -2796885.327 -25370182.301 -896077.934 10 0 60054 900.00000 0 -2949849.394 -25268988.383 2316424.467 10 0 60054 1800.00000 0 -3019090.129 -24772520.907 5484130.042 10 0 60054 2700.00000 0 -2953103.550 -23902964.554 8545838.541 10 0 60054 3600.00000 0 -2706117.901 -22694455.762 11442463.374 10 0 60054 4500.00000 0 -2240254.457 -21191660.694 14118150.947 10 0 60054 5400.00000 0 -1527356.092 -19447939.620 16521334.672 10 0 60054 6300.00000 0 -550408.300 -17523174.083 18605705.513 10 0 60054 7200.00000 0 695505.813 -15481346.384 20331082.567 10 0 60054 8100.00000 0 2202756.100 -13387970.378 21664169.133 10 0 60054 9000.00000 0 3951240.700 -11307478.082 22579181.639 10 0 60054 9900.00000 0 5908984.223 -9300668.175 23058340.757 10 0 60054 10800.00000 0 8033236.068 -7422319.768 23092216.175 10 0 60054 11700.00000 0 10272026.019 -5719068.304 22679918.549 10 0 60054 12600.00000 0 12566115.822 -4227630.109 21829134.369 10 0 60054 13500.00000 0 14851269.158 -2973448.423 20556001.751 10 0 60054 14400.00000 0 17060749.081 -1969817.036 18884827.593 10 0 60054 15300.00000 0 19127941.935 -1217518.691 16847649.107 10 0 60054 16200.00000 0 20989000.679 -704994.575 14483645.435 10 0 60054 17100.00000 0 22585398.624 -409039.536 11838407.933 10 0 60054 18000.00000 0 23866287.025 -295995.749 8963080.664 10 0 60054 18900.00000 0 24790557.015 -323396.426 5913385.588 10 0 60054 19800.00000 0 25328517.601 -441991.645 2748549.833 10 0 60054 20700.00000 0 25463116.763 -598071.459 -469844.842 10 0 60054 21600.00000 0 25190651.435 -735987.866 -3679067.954 10 0 60054 22500.00000 0 24520933.581 -800767.735 -6816477.233 10 0 60054 23400.00000 0 23476902.777 -740703.995 -9820760.852 10 0 60054 24300.00000 0 22093699.701 -509812.503 -12633158.630 10 0 60054 25200.00000 0 20417238.421 -70047.226 -15198635.909 10 0 60054 26100.00000 0 18502337.464 606823.525 -17466984.618 10 0 60054 27000.00000 0 16410489.052 1537762.526 -19393827.598 10 0 60054 27900.00000 0 14207361.759 2727495.139 -20941504.494 10 0 60054 28800.00000 0 11960143.548 4168069.993 -22079820.275 10 0 60054 29700.00000 0 9734838.823 5838968.774 -22786640.763 10 0 60054 30600.00000 0 7593634.852 7707761.095 -23048323.159 10 0 60054 31500.00000 0 5592449.481 9731276.613 -22859973.380 10 0 60054 32400.00000 0 3778763.576 11857244.234 -22225525.999 10 0 60054 33300.00000 0 2189828.841 14026328.251 -21157646.491 10 0 60054 34200.00000 0 851324.908 16174474.412 -19677459.322 10 0 60054 35100.00000 0 -223480.149 18235466.054 -17814109.055 10 0 60054 36000.00000 0 -1034033.642 20143582.010 -15604165.009 10 0 60054 36900.00000 0 -1592257.173 21836244.193 -13090883.072 10 0 60054 37800.00000 0 -1921774.625 23256543.918 -10323340.913 10 0 60054 38700.00000 0 -2056645.504 24355541.795 -7355465.091 10 0 60054 39600.00000 0 -2039660.454 25094246.206 -4244970.373 10 0 60054 40500.00000 0 -1920273.679 25445189.460 -1052232.839 10 0 60054 41400.00000 0 -1752261.535 25393538.035 2160880.823 10 0 60054 42300.00000 0 -1591207.290 24937692.989 5332205.063 10 0 60054 43200.00000 0 -1491918.375 24089358.024 8400465.693 10 0 60054 44100.00000 0 -1505884.525 22873074.547 11306446.556 10 0 60054 45000.00000 0 -1678882.684 21325244.887 13994111.581 10 0 60054 45900.00000 0 -2048827.913 19492685.358 16411662.429 10 0 60054 46800.00000 0 -2643958.957 17430769.595 18512513.503 10 0 60054 47700.00000 0 -3481433.184 15201238.697 20256167.748 10 0 60054 48600.00000 0 -4566388.835 12869767.676 21608978.574 10 0 60054 49500.00000 0 -5891513.589 10503387.095 22544785.203 10 0 60054 50400.00000 0 -7437138.094 8167864.300 23045410.658 10 0 60054 51300.00000 0 -9171852.129 5925150.122 23101013.762 10 0 60054 52200.00000 0 -11053620.099 3830994.328 22710288.584 10 0 60054 53100.00000 0 -13031352.407 1932826.588 21880506.937 10 0 60054 54000.00000 0 -15046870.710 267989.350 20627401.863 10 0 60054 54900.00000 0 -17037188.692 -1137604.710 18974892.406 10 0 60054 55800.00000 0 -18937016.492 -2270334.739 16954652.563 10 0 60054 56700.00000 0 -20681386.939 -3129216.528 14605530.004 10 0 60054 57600.00000 0 -22208295.648 -3725714.328 11972822.986 10 0 60054 58500.00000 0 -23461245.221 -4083025.803 9107426.866 10 0 60054 59400.00000 0 -24391586.578 -4234868.357 6064864.556 10 0 60054 60300.00000 0 -24960557.697 -4223816.378 2904218.146 10 0 60054 61200.00000 0 -25140931.798 -4099258.495 -313018.303 10 0 60054 62100.00000 0 -24918202.692 -3915060.891 -3524142.483 10 0 60054 63000.00000 0 -24291254.267 -3727036.129 -6666479.816 10 0 60054 63900.00000 0 -23272482.829 -3590326.217 -9678625.998 10 0 60054 64800.00000 0 -21887364.612 -3556813.093 -12501669.788 10 0 60054 65700.00000 0 -20173484.811 -3672669.198 -15080369.752 10 0 60054 66600.00000 0 -18179068.110 -3976155.168 -17364259.381 10 0 60054 67500.00000 0 -15961072.528 -4495761.168 -19308656.589 10 0 60054 68400.00000 0 -13582927.578 -5248773.487 -20875555.782 10 0 60054 69300.00000 0 -11112013.256 -6240329.422 -22034383.422 10 0 60054 70200.00000 0 -8616987.495 -7463002.027 -22762601.289 10 0 60054 71100.00000 0 -6165076.037 -8896933.094 -23046145.281 10 0 60054 72000.00000 0 -3819439.864 -10510508.778 -22879691.367 10 0 60054 72900.00000 0 -1636731.466 -12261548.676 -22266744.261 10 0 60054 73800.00000 0 335057.608 -14098957.094 -21219548.362 10 0 60054 74700.00000 0 2058368.466 -15964765.450 -19758824.268 10 0 60054 75600.00000 0 3507393.432 -17796478.317 -17913337.886 10 0 60054 76500.00000 0 4668888.762 -19529623.075 -15719312.483 10 0 60054 77400.00000 0 5542450.769 -21100394.965 -13219697.141 10 0 60054 78300.00000 0 6140247.545 -22448285.973 -10463307.774 10 0 60054 79200.00000 0 6486221.525 -23518587.285 -7503859.034 10 0 60054 80100.00000 0 6614800.229 -24264661.123 -4398907.402 10 0 60054 81000.00000 0 6569172.866 -24649888.049 -1208726.971 10 0 60054 81900.00000 0 6399208.073 -24649210.064 2004859.711 10 0 60054 82800.00000 0 6159102.393 -24250207.036 5179672.953 10 0 60054 83700.00000 0 5904859.519 -23453663.758 8254366.804 10 0 60054 84600.00000 0 5691706.495 -22273606.045 11169597.453 10 0 60054 85500.00000 0 5571554.916 -20736806.121 13869147.982 99